Retour au catalogue

ATLAS 5 CENTAUR DEB

ActifHEO
NORAD 43984·DEBRIS·🇺🇸 United States

Lancé Sep 17, 2014 depuis Cape Canaveral Space Force Station

Loading…

Prochains Passages (prochaines 24 heures)

TLE

FraisSource: Space-Track

Époque: Sep 12, 2026, 02:33 UTC

1 43984U 14055AP  26255.10642859 -.00000018  00000-0  00000-0 0  9998
2 43984  21.1569  83.2473 5107627 271.5461  33.1313  1.91673996 56090

Suivez ATLAS 5 CENTAUR DEB en temps réel avec AllMySat

Download on the App Store